When you browse on this site, cookies collect data to enhance your experience and personalize the content and advertising you see.
Visit our Privacy Policy to learn more. By continuing to use the site, you agree to this use of cookies and data.
  • en France
  • Liste des pays
  • À 7 jours
  • Température de l'eau
  • Carte météo
  • Widgets météo
  • user-avatar
    Se connecter

    Météo par heure à Chorley

    Ce jour, 30 Mai, Samedi

    Heure Température Précipitation Vent Pression Humidité
    00:00 +12°C° 0 mm 3 m/s 758 mmHg 73%
    01:00 +11°C° 0 mm 3 m/s 758 mmHg 72%
    02:00 +11°C° 0 mm 3 m/s 757 mmHg 71%
    03:00 +10°C° 0 mm 3 m/s 757 mmHg 71%
    04:00 +10°C° 0 mm 3 m/s 757 mmHg 69%
    05:00 +11°C° 0 mm 3 m/s 757 mmHg 67%
    06:00 +11°C° 0 mm 3 m/s 757 mmHg 65%
    07:00 +13°C° 0 mm 3 m/s 757 mmHg 60%
    08:00 +14°C° 0 mm 4 m/s 757 mmHg 55%
    09:00 +15°C° 0 mm 4 m/s 757 mmHg 50%
    10:00 +18°C° 0 mm 4 m/s 757 mmHg 49%
    11:00 +19°C° 0 mm 4 m/s 757 mmHg 49%
    12:00 +20°C° 0 mm 4 m/s 757 mmHg 48%
    13:00 +20°C° 0 mm 4 m/s 757 mmHg 50%
    14:00 +21°C° 0 mm 4 m/s 756 mmHg 52%
    15:00 +21°C° 0 mm 4 m/s 756 mmHg 53%
    16:00 +21°C° 0 mm 4 m/s 756 mmHg 57%
    17:00 +20°C° 0 mm 4 m/s 756 mmHg 61%
    18:00 +19°C° 0 mm 5 m/s 756 mmHg 64%
    19:00 +17°C° 0 mm 5 m/s 756 mmHg 66%
    20:00 +15°C° 0 mm 5 m/s 756 mmHg 68%
    21:00 +14°C° 0 mm 5 m/s 756 mmHg 69%
    22:00 +13°C° 0 mm 5 m/s 757 mmHg 73%
    23:00 +12°C° 0 mm 5 m/s 757 mmHg 76%

    Demain, 31 Mai, Dimanche

    Heure Température Précipitation Vent Pression Humidité
    00:00 +12°C° 0 mm 4 m/s 757 mmHg 79%
    01:00 +11°C° 0 mm 4 m/s 757 mmHg 81%
    02:00 +10°C° 0 mm 4 m/s 757 mmHg 82%
    03:00 +10°C° 0 mm 3 m/s 757 mmHg 83%
    04:00 +10°C° 0 mm 4 m/s 757 mmHg 80%
    05:00 +11°C° 0 mm 4 m/s 757 mmHg 77%
    06:00 +12°C° 0 mm 4 m/s 757 mmHg 75%
    07:00 +13°C° 0 mm 4 m/s 757 mmHg 70%
    08:00 +15°C° 0 mm 4 m/s 757 mmHg 65%
    09:00 +18°C° 0 mm 4 m/s 757 mmHg 60%
    10:00 +19°C° 0 mm 4 m/s 757 mmHg 58%
    11:00 +20°C° 0 mm 4 m/s 757 mmHg 55%
    12:00 +21°C° 0 mm 4 m/s 757 mmHg 52%
    13:00 +21°C° 0 mm 4 m/s 757 mmHg 53%
    14:00 +21°C° 0 mm 4 m/s 757 mmHg 53%
    15:00 +21°C° 0 mm 4 m/s 757 mmHg 53%
    16:00 +21°C° 0 mm 4 m/s 757 mmHg 55%
    17:00 +20°C° 0 mm 4 m/s 757 mmHg 57%
    18:00 +20°C° 0 mm 4 m/s 757 mmHg 59%
    19:00 +18°C° 0 mm 4 m/s 757 mmHg 61%
    20:00 +17°C° 0 mm 4 m/s 758 mmHg 64%
    21:00 +14°C° 0 mm 4 m/s 758 mmHg 67%
    22:00 +13°C° 0 mm 4 m/s 758 mmHg 70%
    23:00 +12°C° 0 mm 4 m/s 758 mmHg 73%

    Après-demain, 1 Juin, Lundi

    Heure Température Précipitation Vent Pression Humidité
    00:00 +11°C° 0 mm 3 m/s 758 mmHg 76%
    01:00 +11°C° 0 mm 3 m/s 758 mmHg 78%
    02:00 +10°C° 0 mm 3 m/s 758 mmHg 81%
    03:00 +10°C° 0 mm 2 m/s 759 mmHg 83%
    04:00 +10°C° 0 mm 3 m/s 759 mmHg 81%
    05:00 +11°C° 0 mm 3 m/s 759 mmHg 78%
    06:00 +12°C° 0 mm 3 m/s 759 mmHg 76%
    07:00 +13°C° 0 mm 3 m/s 759 mmHg 72%
    08:00 +15°C° 0 mm 4 m/s 759 mmHg 69%
    09:00 +17°C° 0 mm 4 m/s 759 mmHg 65%
    10:00 +18°C° 0 mm 4 m/s 758 mmHg 62%
    11:00 +19°C° 0 mm 4 m/s 758 mmHg 58%
    12:00 +20°C° 0 mm 4 m/s 758 mmHg 55%
    13:00 +20°C° 0 mm 4 m/s 758 mmHg 54%
    14:00 +21°C° 0 mm 4 m/s 758 mmHg 52%
    15:00 +21°C° 0 mm 4 m/s 758 mmHg 50%
    16:00 +20°C° 0 mm 4 m/s 758 mmHg 52%
    17:00 +20°C° 0 mm 4 m/s 757 mmHg 53%
    18:00 +19°C° 0 mm 4 m/s 757 mmHg 55%
    19:00 +17°C° 0 mm 4 m/s 757 mmHg 60%
    20:00 +14°C° 0 mm 4 m/s 758 mmHg 64%
    21:00 +13°C° 0 mm 3 m/s 758 mmHg 69%
    22:00 +12°C° 0 mm 3 m/s 758 mmHg 72%
    23:00 +11°C° 0 mm 3 m/s 757 mmHg 74%

    2 Juin, Mardi

    Heure Température Précipitation Vent Pression Humidité
    00:00 +10°C° 0 mm 2 m/s 757 mmHg 77%
    01:00 +10°C° 0 mm 2 m/s 757 mmHg 79%
    02:00 +9°C° 0 mm 2 m/s 757 mmHg 81%
    03:00 +10°C° 0 mm 1 m/s 757 mmHg 82%
    04:00 +11°C° 0 mm 1 m/s 756 mmHg 81%
    05:00 +11°C° 0 mm 1 m/s 756 mmHg 79%
    06:00 +12°C° 0 mm 1 m/s 756 mmHg 77%
    07:00 +14°C° 0 mm 1 m/s 756 mmHg 69%
    08:00 +16°C° 0 mm 1 m/s 755 mmHg 61%
    09:00 +18°C° 0 mm 1 m/s 755 mmHg 52%
    10:00 +20°C° 0 mm 1 m/s 755 mmHg 50%
    11:00 +21°C° 0 mm 1 m/s 754 mmHg 47%
    12:00 +21°C° 0 mm 2 m/s 754 mmHg 45%
    13:00 +21°C° 0 mm 2 m/s 753 mmHg 47%
    14:00 +20°C° 0 mm 3 m/s 753 mmHg 50%
    15:00 +20°C° 0 mm 4 m/s 752 mmHg 53%
    16:00 +19°C° 0 mm 4 m/s 752 mmHg 57%
    17:00 +18°C° 0 mm 4 m/s 751 mmHg 62%
    18:00 +17°C° 0 mm 4 m/s 751 mmHg 66%
    19:00 +15°C° 0 mm 4 m/s 751 mmHg 72%
    20:00 +13°C° 0 mm 3 m/s 751 mmHg 78%
    21:00 +12°C° 0 mm 3 m/s 750 mmHg 84%
    22:00 +12°C° 0 mm 3 m/s 750 mmHg 85%
    23:00 +13°C° 0 mm 2 m/s 750 mmHg 87%

    3 Juin, Mercredi

    Heure Température Précipitation Vent Pression Humidité
    00:00 +13°C° 0 mm 2 m/s 750 mmHg 89%
    01:00 +12°C° 0.1 mm 3 m/s 749 mmHg 89%
    02:00 +12°C° 0.1 mm 3 m/s 749 mmHg 89%
    03:00 +12°C° 0.1 mm 3 m/s 749 mmHg 89%
    04:00 +11°C° 0.3 mm 4 m/s 749 mmHg 88%
    05:00 +10°C° 0.3 mm 5 m/s 748 mmHg 87%
    06:00 +9°C° 0.3 mm 6 m/s 748 mmHg 86%
    07:00 +10°C° 0.4 mm 6 m/s 748 mmHg 83%
    08:00 +10°C° 0.4 mm 6 m/s 749 mmHg 81%
    09:00 +11°C° 0.4 mm 6 m/s 749 mmHg 78%
    10:00 +11°C° 0.1 mm 7 m/s 749 mmHg 76%
    11:00 +11°C° 0.1 mm 7 m/s 749 mmHg 73%
    12:00 +11°C° 0.1 mm 7 m/s 749 mmHg 71%
    13:00 +11°C° 0 mm 7 m/s 749 mmHg 68%
    14:00 +12°C° 0 mm 8 m/s 749 mmHg 66%
    15:00 +12°C° 0 mm 8 m/s 749 mmHg 64%
    16:00 +11°C° 0 mm 8 m/s 749 mmHg 66%
    17:00 +10°C° 0 mm 8 m/s 748 mmHg 67%
    18:00 +10°C° 0 mm 8 m/s 748 mmHg 68%
    19:00 +9°C° 0 mm 7 m/s 748 mmHg 70%
    20:00 +8°C° 0 mm 6 m/s 748 mmHg 71%
    21:00 +7°C° 0 mm 6 m/s 749 mmHg 73%
    22:00 +6°C° 0 mm 5 m/s 748 mmHg 73%
    23:00 +6°C° 0 mm 5 m/s 748 mmHg 74%

    4 Juin, Jeudi

    Heure Température Précipitation Vent Pression Humidité
    00:00 +6°C° 0 mm 5 m/s 748 mmHg 74%
    01:00 +6°C° 0 mm 5 m/s 747 mmHg 75%
    02:00 +5°C° 0 mm 5 m/s 747 mmHg 75%
    03:00 +5°C° 0 mm 4 m/s 746 mmHg 75%
    04:00 +6°C° 0 mm 4 m/s 746 mmHg 75%
    05:00 +6°C° 0 mm 5 m/s 746 mmHg 75%
    06:00 +7°C° 0 mm 5 m/s 745 mmHg 75%
    07:00 +8°C° 0 mm 5 m/s 745 mmHg 73%
    08:00 +9°C° 0 mm 5 m/s 745 mmHg 70%
    09:00 +10°C° 0 mm 5 m/s 744 mmHg 68%
    10:00 +12°C° 0 mm 5 m/s 744 mmHg 66%
    11:00 +13°C° 0 mm 5 m/s 744 mmHg 64%
    12:00 +14°C° 0 mm 5 m/s 743 mmHg 62%
    13:00 +14°C° 0 mm 4 m/s 743 mmHg 63%
    14:00 +14°C° 0 mm 4 m/s 742 mmHg 65%
    15:00 +14°C° 0 mm 4 m/s 742 mmHg 66%
    16:00 +13°C° 0 mm 4 m/s 741 mmHg 68%
    17:00 +13°C° 0 mm 4 m/s 741 mmHg 70%
    18:00 +12°C° 0 mm 3 m/s 740 mmHg 72%
    19:00 +11°C° 0 mm 3 m/s 740 mmHg 75%
    20:00 +10°C° 0 mm 3 m/s 739 mmHg 77%
    21:00 +9°C° 0 mm 2 m/s 739 mmHg 80%
    22:00 +9°C° 0 mm 2 m/s 738 mmHg 81%
    23:00 +8°C° 0 mm 2 m/s 738 mmHg 82%
    Voir plus